Regional Weather Roundup
Issued by NWS

Home | Current Version | Previous Version | Graphics & Text | Print | Product List | Glossary On
Versions: 1 2 3 4 5 6 7 8 9 10 11 12 13 14 15 16 17 18 19 20 21 22 23 24 25 26 27 28
000
ASUS45 KBOI 180510
RWRID

IDAHO REGIONAL WEATHER ROUNDUP
NATIONAL WEATHER SERVICE BOISE ID
1000 PM MST WED JAN 17 2018

NOTE: "FAIR" INDICATES FEW OR NO CLOUDS BELOW 12000 FEET
WITH NO SIGNIFICANT WEATHER AND/OR OBSTRUCTIONS TO VISIBILITY

IDZ012-014-180600-
SOUTHWEST IDAHO


CITY           SKY/WX    TMP DP  RH WIND       PRES   REMARKS
BOISE          CLOUDY    43  32  65 S8        30.16F
CALDWELL       CLOUDY    41  35  79 E6        30.17F
MOUNTAIN HOME  CLOUDY    41  38  88 SE23      30.18F
$$

IDZ016-017-180600-
SOUTHCENTRAL IDAHO


CITY           SKY/WX    TMP DP  RH WIND       PRES   REMARKS
BURLEY         MOCLDY    33  29  85 VRB6      30.24F WCI  28
JEROME         CLOUDY    35  29  78 NE20      30.24S WCI  24
TWIN FALLS     CLOUDY    35  34  96 E5        30.23F WCI  31
$$

IDZ019>023-180600-
SOUTHEAST IDAHO


CITY           SKY/WX    TMP DP  RH WIND       PRES   REMARKS
IDAHO FALLS    MOCLDY    31  28  89 N5        30.32R WCI  26
POCATELLO      MOCLDY    30  28  92 CALM      30.30S
REXBURG        MOCLDY    28  25  88 CALM      30.31R
$$

IDZ006-010-011-018-031-032-180600-
CENTRAL IDAHO MOUNTAINS


CITY           SKY/WX    TMP DP  RH WIND       PRES   REMARKS
MCCALL         CLOUDY    30  28  92 E3        30.14F
HAILEY         CLEAR     30  27  86 W6        30.29F WCI  24
STANLEY          N/A     20  17  88 CALM      30.24S
SALMON         MOCLDY    19  18  95 CALM      30.27F
CHALLIS        PTCLDY    23  20  88 CALM      30.26S
$$

IDZ002-004-006-007-026-180600-
NORTHERN IDAHO


CITY           SKY/WX    TMP DP  RH WIND       PRES   REMARKS
LEWISTON       CLOUDY    44  36  73 E7        29.94F
LOWELL           N/A     35  33  92 N5        30.09F WCI  31
COEUR D`ALENE  LGT RAIN  35  32  88 NE10      29.91F WCI  27
MULLAN PASS    CLOUDY    33  29  85 SW5       29.93F WCI  29
$$




USA.gov is the U.S. government's official web portal to all federal, state and local government web resources and services.